Location: Winnipeg
(49.8830°N, 97.1670°W)
Time: 19:57:12
(UTC-06:00)

Envisat - Pass Details

Date: 01 December 2022
Orbit: 763 x 765 km, 98.2° (Epoch: 28 January)

Event Time Altitude Azimuth Distance (km) Brightness Sun altitude
Rises 04:34:13 0° 16° (NNE) 3,246 6.5 -33.0°
Reaches altitude 10° 04:36:34 10° 20° (NNE) 2,315 5.7 -32.7°
Enters shadow 04:39:17 31° 32° (NNE) 1,321 4.4 -32.2°
